Hagerstown, MD

6:16 AM EDT on July 23, 2017 (GMT -0400)
Hagerstown Regional-Henson

Weather History for KHGR - January, 2013

Change the Weather History Date:

Friday, January 18, 2013

  Actual Average Record
Temperature  
Mean Temperature 31 °F 31 °F  
Max Temperature 36 °F 38 °F 52 °F (2017)
Min Temperature 25 °F 23 °F 3 °F (2003)
Degree Days  
Heating Degree Days 34 34  
Month to date heating degree days 500 617  
Since 1 July heating degree days 2309 2581  
Cooling Degree Days 0 0  
Month to date cooling degree days 0 0  
Year to date cooling degree days 0 0  
Moisture  
Dew Point 14 °F    
Average Humidity 56    
Maximum Humidity 75    
Minimum Humidity 36    
Precipitation  
Precipitation T in 0.08 in 0.53 in (2006)
Month to date precipitation 1.27 1.60  
Year to date precipitation 1.27 1.60  
Sea Level Pressure  
Sea Level Pressure 30.40 in    
Wind  
Wind Speed 12 mph (West)    
Max Wind Speed 28 mph    
Max Gust Speed 35 mph    
Visibility 10 miles    
Events      
T = Trace of Precipitation, MM = Missing Value Source: NWS Daily Summary

Daily Weather History Graph

Daily Weather History Graph

Search for Another Location

Airport or City:

Trip Planner

Search our weather history database for the weather conditions in past years. The results will help you decide how hot, cold, wet, or windy it might be!

Date:

Astronomy

Jan. 18, 2013 Rise Set
Actual Time 7:28 AM EST 5:14 PM EST
Civil Twilight 6:59 AM EST 5:43 PM EST
Nautical Twilight 6:26 AM EST 6:17 PM EST
Astronomical Twilight 5:54 AM EST 6:49 PM EST
Moon 11:07 AM EST (1/18) 12:01 AM EST (1/18)
Length of Visible Light 10h 44m
Length of Day
9h 45m
Waxing Crescent, 47% of the Moon is Illuminated
Jan 18
Waxing Crescent
Jan 18
First Quarter
Jan 26
Full
Feb 3
Last Quarter
Feb 10
New

Hourly Weather History & Observations

Time (EST) Temp. Windchill Dew Point Humidity Pressure Visibility Wind Dir Wind Speed Gust Speed Precip Events Conditions
12:53 AM 34.0 °F 29.8 °F 26.1 °F 73% 30.13 in 10.0 mi WNW 4.6 mph - N/A   Clear
1:53 AM 34.0 °F 25.0 °F 25.0 °F 70% 30.15 in 10.0 mi WNW 12.7 mph - N/A   Clear
2:53 AM 35.1 °F 27.4 °F 24.1 °F 64% 30.17 in 10.0 mi West 10.4 mph 17.3 mph N/A   Overcast
3:53 AM 34.0 °F 23.4 °F 23.0 °F 64% 30.20 in 10.0 mi WNW 17.3 mph 24.2 mph N/A   Mostly Cloudy
4:53 AM 32.0 °F 19.2 °F 19.0 °F 59% 30.25 in 10.0 mi NW 23.0 mph 29.9 mph N/A   Overcast
5:53 AM 28.9 °F 19.2 °F 21.9 °F 75% 30.31 in 8.0 mi NNW 11.5 mph - 0.00 in   Overcast
6:53 AM 28.9 °F 15.8 °F 17.1 °F 61% 30.34 in 10.0 mi NW 20.7 mph 31.1 mph N/A   Overcast
7:53 AM 26.1 °F 11.6 °F 12.0 °F 55% 30.42 in 10.0 mi NW 21.9 mph 31.1 mph N/A   Partly Cloudy
8:53 AM 25.0 °F 11.3 °F 9.0 °F 51% 30.47 in 10.0 mi NNW 18.4 mph 25.3 mph N/A   Clear
9:53 AM 26.1 °F 13.6 °F 8.1 °F 47% 30.51 in 10.0 mi NW 16.1 mph - N/A   Clear
10:53 AM 27.0 °F 16.7 °F 8.1 °F 45% 30.53 in 10.0 mi NNW 11.5 mph - N/A   Clear
11:53 AM 28.9 °F 19.8 °F 8.1 °F 41% 30.52 in 10.0 mi NNW 10.4 mph - N/A   Clear
12:53 PM 28.9 °F 21.1 °F 8.1 °F 41% 30.49 in 10.0 mi NW 8.1 mph - N/A   Clear
1:53 PM 30.9 °F 21.7 °F 7.0 °F 37% 30.50 in 10.0 mi WNW 11.5 mph 16.1 mph N/A   Clear
2:53 PM 32.0 °F 26.4 °F 8.1 °F 37% 30.49 in 10.0 mi NW 5.8 mph - N/A   Clear
3:53 PM 32.0 °F - 9.0 °F 38% 30.49 in 10.0 mi Calm Calm - N/A   Clear
4:53 PM 32.0 °F 28.7 °F 9.0 °F 38% 30.49 in 10.0 mi SSW 3.5 mph - N/A   Clear
5:53 PM 30.0 °F 24.1 °F 10.0 °F 43% 30.48 in 10.0 mi SSE 5.8 mph - N/A   Clear
6:53 PM 30.0 °F 26.5 °F 10.9 °F 45% 30.48 in 10.0 mi SE 3.5 mph - N/A   Clear
7:53 PM 30.0 °F 22.4 °F 10.9 °F 45% 30.48 in 10.0 mi SSE 8.1 mph - N/A   Clear
8:53 PM 30.0 °F 21.1 °F 12.0 °F 47% 30.46 in 10.0 mi SSE 10.4 mph - N/A   Clear
9:53 PM 30.0 °F 23.2 °F 12.9 °F 49% 30.45 in 10.0 mi South 6.9 mph - N/A   Clear
10:53 PM 30.0 °F 22.4 °F 15.1 °F 54% 30.42 in 10.0 mi South 8.1 mph - N/A   Clear
11:53 PM 28.9 °F 22.8 °F 17.1 °F 61% 30.40 in 10.0 mi South 5.8 mph - N/A   Clear